TimeCST,TemperatureF,Dew PointF,Humidity,Sea Level PressureIn,VisibilityMPH,Wind Direction,Wind SpeedMPH,Gust SpeedMPH,PrecipitationIn,Events,Conditions,WindDirDegrees,DateUTC
12:53 AM,46.0,32.0,58,30.18,10.0,NNW,8.1,-,N/A,,Clear,340,2013-01-20 06:53:00
1:53 AM,44.1,30.0,58,30.20,10.0,North,9.2,-,N/A,,Clear,360,2013-01-20 07:53:00
2:53 AM,42.1,28.9,60,30.21,10.0,North,6.9,-,N/A,,Clear,350,2013-01-20 08:53:00
3:53 AM,39.9,28.0,63,30.22,10.0,North,5.8,-,N/A,,Clear,350,2013-01-20 09:53:00
4:53 AM,39.0,28.0,65,30.22,10.0,North,9.2,-,N/A,,Clear,360,2013-01-20 10:53:00
5:53 AM,37.0,27.0,67,30.25,10.0,North,5.8,-,N/A,,Clear,10,2013-01-20 11:53:00
6:53 AM,32.0,26.1,79,30.27,10.0,Calm,Calm,-,N/A,,Clear,0,2013-01-20 12:53:00
7:53 AM,32.0,26.1,79,30.29,10.0,NNW,4.6,-,N/A,,Clear,330,2013-01-20 13:53:00
8:53 AM,39.0,23.0,53,30.29,10.0,NNE,6.9,-,N/A,,Clear,20,2013-01-20 14:53:00
9:53 AM,41.0,19.9,43,30.30,10.0,NE,9.2,-,N/A,,Clear,40,2013-01-20 15:53:00
10:53 AM,43.0,21.0,42,30.28,10.0,NE,4.6,-,N/A,,Clear,50,2013-01-20 16:53:00
11:53 AM,46.0,16.0,30,30.25,10.0,Variable,3.5,-,N/A,,Clear,0,2013-01-20 17:53:00
12:53 PM,46.9,15.1,28,30.22,10.0,Calm,Calm,-,N/A,,Clear,0,2013-01-20 18:53:00
1:53 PM,48.9,17.1,28,30.20,10.0,Calm,Calm,-,N/A,,Clear,0,2013-01-20 19:53:00
2:53 PM,50.0,16.0,26,30.19,10.0,ESE,3.5,-,N/A,,Clear,110,2013-01-20 20:53:00
3:53 PM,51.1,17.1,26,30.19,10.0,Variable,3.5,-,N/A,,Clear,0,2013-01-20 21:53:00
4:53 PM,48.0,19.0,32,30.19,10.0,ENE,4.6,-,N/A,,Clear,60,2013-01-20 22:53:00
5:53 PM,42.1,19.0,40,30.20,10.0,Calm,Calm,-,N/A,,Clear,0,2013-01-20 23:53:00
6:53 PM,36.0,19.9,52,30.21,10.0,NNE,4.6,-,N/A,,Clear,20,2013-01-21 00:53:00
7:53 PM,36.0,17.1,46,30.22,10.0,NNE,6.9,-,N/A,,Clear,30,2013-01-21 01:53:00
8:53 PM,35.1,15.1,44,30.22,10.0,NE,6.9,-,N/A,,Scattered Clouds,40,2013-01-21 02:53:00
9:53 PM,32.0,17.1,54,30.24,10.0,North,6.9,-,N/A,,Clear,10,2013-01-21 03:53:00
10:53 PM,30.9,12.9,47,30.26,10.0,NNE,10.4,-,N/A,,Clear,20,2013-01-21 04:53:00
11:53 PM,28.0,10.9,49,30.27,10.0,North,8.1,-,N/A,,Clear,10,2013-01-21 05:53:00